When you browse on this site, cookies collect data to enhance your experience and personalize the content and advertising you see.
Visit our Privacy Policy to learn more. By continuing to use the site, you agree to this use of cookies and data.
  • In Hungary
  • List of Countries
  • For 7 days
  • Water Temperature
  • Weather Map
  • News
  • Weather Widgets
  • user-avatar
    Login

    Hourly Weather Nowe Bystre

    Today, 15 November, Friday

    Time Temperature Precipitation Wind Pressure Humidity
    00:00 +5°C° 0 mm 1 mps 684 mmHg 76%
    01:00 +4°C° 0 mm 2 mps 684 mmHg 82%
    02:00 +6°C° 0 mm 1 mps 684 mmHg 85%
    03:00 +6°C° 0 mm 1 mps 684 mmHg 87%
    04:00 +6°C° 0 mm 1 mps 684 mmHg 89%
    05:00 +6°C° 0 mm 1 mps 684 mmHg 91%
    06:00 +6°C° 0 mm 1 mps 684 mmHg 92%
    07:00 +6°C° 0 mm 1 mps 684 mmHg 94%
    08:00 +6°C° 0 mm 2 mps 684 mmHg 90%
    09:00 +7°C° 0 mm 2 mps 684 mmHg 87%
    10:00 +9°C° 0 mm 2 mps 685 mmHg 84%
    11:00 +10°C° 0 mm 2 mps 685 mmHg 81%
    12:00 +10°C° 0 mm 2 mps 685 mmHg 78%
    13:00 +12°C° 0 mm 2 mps 685 mmHg 75%
    14:00 +9°C° 0 mm 2 mps 685 mmHg 80%
    15:00 +8°C° 0 mm 2 mps 684 mmHg 85%
    16:00 +7°C° 0 mm 2 mps 684 mmHg 89%
    17:00 +7°C° 0 mm 2 mps 684 mmHg 90%
    18:00 +7°C° 0 mm 2 mps 684 mmHg 91%
    19:00 +6°C° 0 mm 2 mps 684 mmHg 92%
    20:00 +6°C° 0 mm 2 mps 684 mmHg 92%
    21:00 +7°C° 0 mm 3 mps 684 mmHg 92%
    22:00 +7°C° 0 mm 3 mps 685 mmHg 91%
    23:00 +7°C° 0 mm 3 mps 685 mmHg 91%

    Tomorrow, 16 November, Saturday

    Time Temperature Precipitation Wind Pressure Humidity
    00:00 +7°C° 0 mm 3 mps 685 mmHg 91%
    01:00 +7°C° 0 mm 2 mps 685 mmHg 91%
    02:00 +7°C° 0 mm 3 mps 685 mmHg 91%
    03:00 +7°C° 0 mm 3 mps 684 mmHg 91%
    04:00 +7°C° 0 mm 3 mps 684 mmHg 92%
    05:00 +7°C° 0 mm 3 mps 684 mmHg 92%
    06:00 +7°C° 0 mm 3 mps 684 mmHg 92%
    07:00 +7°C° 0 mm 3 mps 685 mmHg 92%
    08:00 +7°C° 0 mm 4 mps 685 mmHg 89%
    09:00 +8°C° 0 mm 4 mps 685 mmHg 85%
    10:00 +10°C° 0 mm 4 mps 685 mmHg 82%
    11:00 +10°C° 0 mm 4 mps 686 mmHg 82%
    12:00 +10°C° 0 mm 4 mps 686 mmHg 82%
    13:00 +10°C° 0 mm 4 mps 686 mmHg 81%
    14:00 +10°C° 0 mm 4 mps 686 mmHg 84%
    15:00 +9°C° 0 mm 3 mps 686 mmHg 86%
    16:00 +8°C° 0 mm 3 mps 686 mmHg 89%
    17:00 +8°C° 0 mm 3 mps 686 mmHg 90%
    18:00 +8°C° 0 mm 3 mps 686 mmHg 91%
    19:00 +8°C° 0 mm 3 mps 686 mmHg 92%
    20:00 +7°C° 0 mm 2 mps 687 mmHg 93%
    21:00 +7°C° 0 mm 2 mps 687 mmHg 94%
    22:00 +7°C° 0 mm 2 mps 687 mmHg 94%
    23:00 +6°C° 0 mm 2 mps 687 mmHg 94%

    Day after tomorrow, 17 November, Sunday

    Time Temperature Precipitation Wind Pressure Humidity
    00:00 +6°C° 0 mm 2 mps 687 mmHg 94%
    01:00 +6°C° 0 mm 2 mps 687 mmHg 94%
    02:00 +6°C° 0 mm 2 mps 687 mmHg 93%
    03:00 +6°C° 0 mm 2 mps 687 mmHg 92%
    04:00 +6°C° 0 mm 2 mps 686 mmHg 92%
    05:00 +6°C° 0 mm 2 mps 687 mmHg 91%
    06:00 +6°C° 0 mm 2 mps 687 mmHg 90%
    07:00 +6°C° 0 mm 2 mps 687 mmHg 90%
    08:00 +7°C° 0 mm 2 mps 687 mmHg 85%
    09:00 +8°C° 0 mm 2 mps 687 mmHg 81%
    10:00 +9°C° 0 mm 2 mps 687 mmHg 77%
    11:00 +10°C° 0 mm 2 mps 687 mmHg 75%
    12:00 +10°C° 0 mm 2 mps 687 mmHg 73%
    13:00 +12°C° 0 mm 2 mps 686 mmHg 71%
    14:00 +10°C° 0 mm 2 mps 686 mmHg 74%
    15:00 +9°C° 0 mm 2 mps 685 mmHg 76%
    16:00 +8°C° 0 mm 2 mps 685 mmHg 78%
    17:00 +8°C° 0 mm 2 mps 685 mmHg 77%
    18:00 +7°C° 0 mm 2 mps 685 mmHg 76%
    19:00 +7°C° 0 mm 2 mps 685 mmHg 74%
    20:00 +7°C° 0 mm 2 mps 684 mmHg 74%
    21:00 +7°C° 0 mm 2 mps 684 mmHg 73%
    22:00 +7°C° 0 mm 2 mps 684 mmHg 72%
    23:00 +6°C° 0 mm 2 mps 684 mmHg 73%

    18 November, Monday

    Time Temperature Precipitation Wind Pressure Humidity
    00:00 +6°C° 0 mm 2 mps 683 mmHg 73%
    01:00 +6°C° 0 mm 2 mps 683 mmHg 74%
    02:00 +6°C° 0 mm 2 mps 683 mmHg 77%
    03:00 +6°C° 0 mm 2 mps 683 mmHg 81%
    04:00 +6°C° 0 mm 2 mps 683 mmHg 84%
    05:00 +6°C° 0 mm 2 mps 683 mmHg 85%
    06:00 +6°C° 0 mm 2 mps 683 mmHg 86%
    07:00 +6°C° 0 mm 2 mps 683 mmHg 88%
    08:00 +7°C° 0 mm 2 mps 683 mmHg 86%
    09:00 +8°C° 0 mm 2 mps 684 mmHg 84%
    10:00 +9°C° 0 mm 3 mps 684 mmHg 82%
    11:00 +9°C° 0 mm 3 mps 684 mmHg 78%
    12:00 +9°C° 0 mm 3 mps 685 mmHg 75%
    13:00 +10°C° 0 mm 3 mps 685 mmHg 72%
    14:00 +8°C° 0 mm 3 mps 685 mmHg 75%
    15:00 +7°C° 0 mm 3 mps 685 mmHg 78%
    16:00 +4°C° 0 mm 3 mps 685 mmHg 82%
    17:00 +4°C° 0 mm 3 mps 685 mmHg 83%
    18:00 +4°C° 0 mm 2 mps 686 mmHg 84%
    19:00 +4°C° 0 mm 2 mps 686 mmHg 86%
    20:00 +4°C° 0 mm 2 mps 687 mmHg 86%
    21:00 +3°C° 0 mm 2 mps 687 mmHg 87%
    22:00 +3°C° 0 mm 2 mps 687 mmHg 87%
    23:00 +3°C° 0 mm 2 mps 687 mmHg 87%

    19 November, Tuesday

    Time Temperature Precipitation Wind Pressure Humidity
    00:00 +3°C° 0 mm 2 mps 688 mmHg 87%
    01:00 +3°C° 0 mm 2 mps 688 mmHg 87%
    02:00 +3°C° 0 mm 2 mps 688 mmHg 87%
    03:00 +4°C° 0 mm 2 mps 688 mmHg 87%
    04:00 +4°C° 0 mm 2 mps 688 mmHg 86%
    05:00 +5°C° 0 mm 1 mps 688 mmHg 86%
    06:00 +5°C° 0 mm 1 mps 688 mmHg 85%
    07:00 +5°C° 0 mm 1 mps 688 mmHg 84%
    08:00 +6°C° 0 mm 1 mps 689 mmHg 81%
    09:00 +7°C° 0 mm 1 mps 689 mmHg 77%
    10:00 +8°C° 0 mm 1 mps 689 mmHg 74%
    11:00 +9°C° 0 mm 1 mps 689 mmHg 73%
    12:00 +10°C° 0 mm 1 mps 689 mmHg 72%
    13:00 +10°C° 0 mm 1 mps 689 mmHg 71%
    14:00 +9°C° 0 mm 1 mps 689 mmHg 76%
    15:00 +8°C° 0 mm 1 mps 688 mmHg 82%
    16:00 +7°C° 0 mm 1 mps 688 mmHg 87%
    17:00 +7°C° 0 mm 1 mps 688 mmHg 87%
    18:00 +7°C° 0 mm 1 mps 688 mmHg 87%
    19:00 +7°C° 0 mm 1 mps 688 mmHg 87%
    20:00 +6°C° 0 mm 1 mps 688 mmHg 87%
    21:00 +6°C° 0 mm 1 mps 688 mmHg 87%
    22:00 +6°C° 0 mm 1 mps 688 mmHg 87%
    23:00 +6°C° 0 mm 1 mps 688 mmHg 87%

    20 November, Wednesday

    Time Temperature Precipitation Wind Pressure Humidity
    00:00 +5°C° 0 mm 1 mps 688 mmHg 86%
    01:00 +5°C° 0 mm 1 mps 688 mmHg 85%
    02:00 +5°C° 0 mm 1 mps 688 mmHg 84%
    03:00 +5°C° 0 mm 1 mps 688 mmHg 82%
    04:00 +6°C° 0 mm 1 mps 687 mmHg 80%
    05:00 +5°C° 0 mm 1 mps 687 mmHg 79%
    06:00 +5°C° 0 mm 1 mps 687 mmHg 79%
    07:00 +5°C° 0 mm 1 mps 687 mmHg 79%
    08:00 +6°C° 0 mm 1 mps 688 mmHg 77%
    09:00 +7°C° 0 mm 0 mps 688 mmHg 76%
    10:00 +8°C° 0 mm 0 mps 688 mmHg 75%
    11:00 +8°C° 0 mm 0 mps 688 mmHg 73%
    12:00 +9°C° 0 mm 0 mps 688 mmHg 71%
    13:00 +10°C° 0 mm 0 mps 687 mmHg 69%
    14:00 +9°C° 0 mm 0 mps 687 mmHg 73%
    15:00 +8°C° 0 mm 0 mps 687 mmHg 77%
    16:00 +7°C° 0 mm 0 mps 686 mmHg 81%
    17:00 +7°C° 0 mm 0 mps 686 mmHg 81%
    18:00 +7°C° 0 mm 1 mps 686 mmHg 82%
    19:00 +7°C° 0 mm 1 mps 686 mmHg 82%
    20:00 +7°C° 0 mm 1 mps 686 mmHg 83%
    21:00 +7°C° 0 mm 1 mps 686 mmHg 83%
    22:00 +7°C° 0 mm 1 mps 686 mmHg 84%
    23:00 +7°C° 0 mm 1 mps 686 mmHg 85%
    Show more